• In Portugal
  • List of Countries
  • For 7 days
  • Water Temperature
  • Satellite Maps
  • Weather Map
  • Weather Widgets
  • user-avatar
    Login

    Hourly Weather Kırklareli

    Today, 24 September, Monday

    Time Temperature Precipitation Wind Pressure Humidity
    00:00 +23°C° 0 mm 2 mps 756 mmHg 69%
    01:00 +23°C° 0 mm 2 mps 756 mmHg 70%
    02:00 +22°C° 0 mm 1 mps 755 mmHg 70%
    03:00 +22°C° 0 mm 1 mps 755 mmHg 70%
    04:00 +22°C° 0 mm 1 mps 755 mmHg 70%
    05:00 +22°C° 0 mm 1 mps 754 mmHg 70%
    06:00 +23°C° 0 mm 1 mps 754 mmHg 64%
    07:00 +24°C° 0 mm 1 mps 754 mmHg 59%
    08:00 +25°C° 0 mm 2 mps 753 mmHg 52%
    09:00 +27°C° 0 mm 2 mps 753 mmHg 44%
    10:00 +29°C° 0 mm 3 mps 753 mmHg 37%
    11:00 +31°C° 0 mm 3 mps 753 mmHg 30%
    12:00 +33°C° 0 mm 4 mps 752 mmHg 28%
    13:00 +34°C° 0 mm 4 mps 752 mmHg 26%
    14:00 +35°C° 0 mm 5 mps 751 mmHg 23%
    15:00 +34°C° 0 mm 5 mps 751 mmHg 25%
    16:00 +34°C° 0 mm 5 mps 751 mmHg 27%
    17:00 +33°C° 0 mm 4 mps 751 mmHg 28%
    18:00 +30°C° 0 mm 4 mps 751 mmHg 33%
    19:00 +28°C° 0 mm 4 mps 752 mmHg 38%
    20:00 +26°C° 0 mm 4 mps 752 mmHg 43%
    21:00 +25°C° 0 mm 5 mps 753 mmHg 43%
    22:00 +23°C° 0 mm 7 mps 754 mmHg 42%
    23:00 +22°C° 0 mm 8 mps 755 mmHg 42%

    Tomorrow, 25 September, Tuesday

    Time Temperature Precipitation Wind Pressure Humidity
    00:00 +21°C° 0 mm 8 mps 756 mmHg 46%
    01:00 +18°C° 0 mm 8 mps 756 mmHg 50%
    02:00 +17°C° 0 mm 8 mps 757 mmHg 54%
    03:00 +16°C° 0 mm 8 mps 758 mmHg 57%
    04:00 +16°C° 0 mm 7 mps 758 mmHg 59%
    05:00 +15°C° 0 mm 7 mps 759 mmHg 62%
    06:00 +15°C° 0.1 mm 7 mps 759 mmHg 62%
    07:00 +14°C° 0.1 mm 7 mps 760 mmHg 61%
    08:00 +14°C° 0.1 mm 6 mps 760 mmHg 61%
    09:00 +14°C° 0 mm 6 mps 761 mmHg 58%
    10:00 +15°C° 0 mm 6 mps 761 mmHg 55%
    11:00 +15°C° 0 mm 6 mps 761 mmHg 52%
    12:00 +16°C° 0 mm 5 mps 761 mmHg 47%
    13:00 +17°C° 0 mm 5 mps 761 mmHg 41%
    14:00 +19°C° 0 mm 5 mps 761 mmHg 36%
    15:00 +20°C° 0 mm 5 mps 761 mmHg 34%
    16:00 +20°C° 0 mm 5 mps 761 mmHg 32%
    17:00 +20°C° 0 mm 5 mps 761 mmHg 30%
    18:00 +19°C° 0 mm 5 mps 762 mmHg 35%
    19:00 +16°C° 0 mm 5 mps 762 mmHg 40%
    20:00 +15°C° 0 mm 4 mps 763 mmHg 45%
    21:00 +14°C° 0 mm 4 mps 763 mmHg 50%
    22:00 +14°C° 0 mm 4 mps 763 mmHg 54%
    23:00 +14°C° 0 mm 4 mps 764 mmHg 58%

    Day after tomorrow, 26 September, Wednesday

    Time Temperature Precipitation Wind Pressure Humidity
    00:00 +13°C° 0 mm 5 mps 764 mmHg 55%
    01:00 +13°C° 0 mm 5 mps 764 mmHg 51%
    02:00 +13°C° 0 mm 5 mps 764 mmHg 48%
    03:00 +13°C° 0 mm 6 mps 764 mmHg 48%
    04:00 +11°C° 0 mm 6 mps 764 mmHg 48%
    05:00 +11°C° 0 mm 7 mps 764 mmHg 48%
    06:00 +12°C° 0 mm 8 mps 764 mmHg 45%
    07:00 +12°C° 0 mm 8 mps 765 mmHg 43%
    08:00 +13°C° 0 mm 9 mps 765 mmHg 41%
    09:00 +14°C° 0 mm 10 mps 765 mmHg 38%
    10:00 +16°C° 0 mm 10 mps 765 mmHg 35%
    11:00 +17°C° 0 mm 10 mps 765 mmHg 33%
    12:00 +17°C° 0 mm 10 mps 765 mmHg 32%
    13:00 +17°C° 0 mm 10 mps 765 mmHg 32%
    14:00 +18°C° 0 mm 11 mps 764 mmHg 32%
    15:00 +17°C° 0 mm 10 mps 764 mmHg 34%
    16:00 +16°C° 0 mm 10 mps 764 mmHg 36%
    17:00 +16°C° 0 mm 10 mps 764 mmHg 38%
    18:00 +15°C° 0 mm 9 mps 764 mmHg 41%
    19:00 +13°C° 0 mm 8 mps 765 mmHg 44%
    20:00 +12°C° 0 mm 8 mps 765 mmHg 47%
    21:00 +12°C° 0 mm 8 mps 765 mmHg 47%
    22:00 +12°C° 0 mm 8 mps 765 mmHg 48%
    23:00 +12°C° 0 mm 8 mps 765 mmHg 48%

    27 September, Thursday

    Time Temperature Precipitation Wind Pressure Humidity
    00:00 +11°C° 0 mm 8 mps 765 mmHg 49%
    01:00 +11°C° 0 mm 8 mps 764 mmHg 49%
    02:00 +11°C° 0 mm 8 mps 764 mmHg 50%
    03:00 +11°C° 0 mm 8 mps 764 mmHg 51%
    04:00 +11°C° 0 mm 8 mps 763 mmHg 52%
    05:00 +10°C° 0 mm 8 mps 763 mmHg 53%
    06:00 +11°C° 0 mm 9 mps 763 mmHg 52%
    07:00 +12°C° 0 mm 9 mps 763 mmHg 51%
    08:00 +12°C° 0 mm 10 mps 763 mmHg 49%
    09:00 +14°C° 0 mm 10 mps 763 mmHg 48%
    10:00 +16°C° 0 mm 10 mps 762 mmHg 46%
    11:00 +17°C° 0 mm 10 mps 762 mmHg 45%
    12:00 +17°C° 0 mm 10 mps 762 mmHg 46%
    13:00 +18°C° 0 mm 10 mps 761 mmHg 46%
    14:00 +18°C° 0 mm 10 mps 760 mmHg 47%
    15:00 +18°C° 0 mm 10 mps 760 mmHg 49%
    16:00 +17°C° 0 mm 10 mps 760 mmHg 52%
    17:00 +17°C° 0 mm 10 mps 760 mmHg 55%
    18:00 +16°C° 0 mm 9 mps 760 mmHg 58%
    19:00 +16°C° 0 mm 8 mps 760 mmHg 62%
    20:00 +15°C° 0 mm 8 mps 760 mmHg 65%
    21:00 +15°C° 0 mm 8 mps 760 mmHg 66%
    22:00 +15°C° 0 mm 7 mps 760 mmHg 67%
    23:00 +14°C° 0 mm 7 mps 759 mmHg 68%

    28 September, Friday

    Time Temperature Precipitation Wind Pressure Humidity
    00:00 +14°C° 0 mm 7 mps 759 mmHg 69%
    01:00 +14°C° 0 mm 7 mps 759 mmHg 69%
    02:00 +14°C° 0 mm 7 mps 758 mmHg 70%
    03:00 +14°C° 0 mm 7 mps 758 mmHg 70%
    04:00 +14°C° 0 mm 7 mps 758 mmHg 70%
    05:00 +14°C° 0 mm 7 mps 758 mmHg 70%
    06:00 +15°C° 0 mm 7 mps 758 mmHg 67%
    07:00 +16°C° 0 mm 7 mps 757 mmHg 65%
    08:00 +16°C° 0 mm 8 mps 757 mmHg 62%
    09:00 +17°C° 0 mm 7 mps 757 mmHg 59%
    10:00 +20°C° 0 mm 7 mps 757 mmHg 56%
    11:00 +21°C° 0 mm 7 mps 757 mmHg 53%
    12:00 +21°C° 0 mm 7 mps 756 mmHg 52%
    13:00 +22°C° 0 mm 7 mps 756 mmHg 51%
    14:00 +22°C° 0 mm 7 mps 756 mmHg 50%
    15:00 +22°C° 0 mm 7 mps 755 mmHg 52%
    16:00 +22°C° 0 mm 6 mps 755 mmHg 54%
    17:00 +21°C° 0 mm 6 mps 755 mmHg 57%
    18:00 +20°C° 0 mm 5 mps 755 mmHg 62%
    19:00 +19°C° 0 mm 4 mps 755 mmHg 66%
    20:00 +18°C° 0 mm 4 mps 755 mmHg 71%
    21:00 +18°C° 0 mm 3 mps 755 mmHg 73%
    22:00 +17°C° 0 mm 3 mps 755 mmHg 74%
    23:00 +17°C° 0 mm 3 mps 755 mmHg 76%

    29 September, Saturday

    Time Temperature Precipitation Wind Pressure Humidity
    00:00 +17°C° 0.5 mm 3 mps 755 mmHg 77%
    01:00 +17°C° 0.5 mm 2 mps 755 mmHg 77%
    02:00 +17°C° 0.5 mm 2 mps 754 mmHg 78%
    03:00 +17°C° 2.4 mm 2 mps 754 mmHg 81%
    04:00 +16°C° 2.4 mm 2 mps 754 mmHg 83%
    05:00 +16°C° 2.4 mm 3 mps 754 mmHg 85%
    06:00 +16°C° 1.5 mm 3 mps 754 mmHg 85%
    07:00 +16°C° 1.5 mm 3 mps 754 mmHg 85%
    08:00 +16°C° 1.5 mm 3 mps 754 mmHg 85%
    09:00 +17°C° 0.2 mm 3 mps 754 mmHg 79%
    10:00 +19°C° 0.2 mm 3 mps 754 mmHg 74%
    11:00 +20°C° 0.2 mm 3 mps 754 mmHg 69%
    12:00 +20°C° 0 mm 3 mps 754 mmHg 66%
    13:00 +21°C° 0 mm 3 mps 754 mmHg 63%
    14:00 +21°C° 0 mm 3 mps 753 mmHg 60%
    15:00 +21°C° 0 mm 3 mps 753 mmHg 61%
    16:00 +21°C° 0 mm 3 mps 754 mmHg 62%
    17:00 +20°C° 0 mm 3 mps 754 mmHg 63%
    18:00 +20°C° 0 mm 3 mps 754 mmHg 67%
    19:00 +19°C° 0 mm 2 mps 754 mmHg 71%
    20:00 +18°C° 0 mm 2 mps 755 mmHg 75%
    21:00 +18°C° 0 mm 2 mps 755 mmHg 76%
    22:00 +17°C° 0 mm 2 mps 755 mmHg 77%
    23:00 +17°C° 0 mm 2 mps 755 mmHg 78%
    Show more